User: anonymous
Location: Starry Hill Observatory
(46.8582°N, 122.3590°W)
Time: 02:28:00
(UTC-07:00)
Language:

Cosmos 1300 Rocket - Orbit

View from above orbital plane
View from above orbital plane
View from above satellite
View from above satellite

Ground track
Ground track

The orbit data is extracted from the following two-line orbital elements,

1 12786U 81082B   14257.36380260  .00000521  00000-0  59454-4 0  9742
2 12786 082.4912 196.3924 0016826 342.3767 167.7183 14.84169895785447
Epoch (UTC): 14 September 2014 08:43:52
Eccentricity: 0.0016826
inclination: 82.4912°
perigee height: 604 km
apogee height: 628 km
right ascension of ascending node: 196.3924°
argument of perigee: 342.3767°
revolutions per day: 14.84169895
mean anomaly at epoch: 167.7183°
orbit number at epoch: 78544

The dashed part of the orbit path shows where the satellite is in the earth's shadow,  

DLR